When you browse on this site, cookies collect data to enhance your experience and personalize the content and advertising you see.
Visit our Privacy Policy to learn more. By continuing to use the site, you agree to this use of cookies and data.
  • In Hungary
  • List of Countries
  • For 7 days
  • Water Temperature
  • Weather Map
  • News
  • Weather Widgets
  • user-avatar
    Login

    Hourly Weather Independencia

    Today, 20 November, Wednesday

    Time Temperature Precipitation Wind Pressure Humidity
    00:00 +26°C° 0 mm 3 mps 728 mmHg 70%
    01:00 +25°C° 0 mm 2 mps 728 mmHg 76%
    02:00 +25°C° 0 mm 2 mps 728 mmHg 81%
    03:00 +24°C° 0 mm 1 mps 728 mmHg 87%
    04:00 +25°C° 0 mm 2 mps 728 mmHg 84%
    05:00 +25°C° 0 mm 2 mps 728 mmHg 80%
    06:00 +26°C° 0 mm 3 mps 728 mmHg 77%
    07:00 +26°C° 0 mm 3 mps 729 mmHg 72%
    08:00 +27°C° 0 mm 3 mps 729 mmHg 68%
    09:00 +28°C° 0 mm 3 mps 729 mmHg 63%
    10:00 +31°C° 0 mm 3 mps 728 mmHg 55%
    11:00 +34°C° 0 mm 3 mps 728 mmHg 46%
    12:00 +37°C° 0 mm 3 mps 728 mmHg 37%
    13:00 +37°C° 0 mm 2 mps 727 mmHg 34%
    14:00 +38°C° 0 mm 2 mps 726 mmHg 31%
    15:00 +39°C° 0 mm 2 mps 726 mmHg 28%
    16:00 +37°C° 0 mm 2 mps 726 mmHg 31%
    17:00 +35°C° 0 mm 2 mps 726 mmHg 35%
    18:00 +34°C° 0 mm 2 mps 726 mmHg 38%
    19:00 +31°C° 0 mm 1 mps 726 mmHg 43%
    20:00 +30°C° 0 mm 1 mps 727 mmHg 47%
    21:00 +29°C° 0 mm 1 mps 727 mmHg 52%
    22:00 +28°C° 0 mm 2 mps 727 mmHg 55%
    23:00 +28°C° 0 mm 2 mps 727 mmHg 58%

    Tomorrow, 21 November, Thursday

    Time Temperature Precipitation Wind Pressure Humidity
    00:00 +27°C° 0 mm 2 mps 727 mmHg 62%
    01:00 +27°C° 0 mm 2 mps 727 mmHg 68%
    02:00 +26°C° 0 mm 3 mps 727 mmHg 74%
    03:00 +25°C° 0 mm 3 mps 727 mmHg 80%
    04:00 +25°C° 0 mm 3 mps 727 mmHg 78%
    05:00 +25°C° 0 mm 3 mps 728 mmHg 76%
    06:00 +25°C° 0 mm 3 mps 728 mmHg 75%
    07:00 +27°C° 0 mm 3 mps 729 mmHg 65%
    08:00 +29°C° 0 mm 3 mps 729 mmHg 56%
    09:00 +31°C° 0 mm 3 mps 729 mmHg 47%
    10:00 +34°C° 0 mm 3 mps 729 mmHg 41%
    11:00 +36°C° 0 mm 3 mps 728 mmHg 35%
    12:00 +38°C° 0 mm 3 mps 728 mmHg 30%
    13:00 +38°C° 0 mm 3 mps 727 mmHg 29%
    14:00 +38°C° 0 mm 3 mps 726 mmHg 27%
    15:00 +38°C° 0 mm 3 mps 725 mmHg 26%
    16:00 +37°C° 0 mm 2 mps 725 mmHg 28%
    17:00 +36°C° 0 mm 2 mps 725 mmHg 30%
    18:00 +34°C° 0 mm 2 mps 725 mmHg 33%
    19:00 +32°C° 0 mm 2 mps 726 mmHg 35%
    20:00 +31°C° 0 mm 2 mps 726 mmHg 38%
    21:00 +30°C° 0 mm 2 mps 727 mmHg 40%
    22:00 +28°C° 0 mm 3 mps 727 mmHg 50%
    23:00 +27°C° 0 mm 3 mps 727 mmHg 60%

    Day after tomorrow, 22 November, Friday

    Time Temperature Precipitation Wind Pressure Humidity
    00:00 +25°C° 0 mm 4 mps 727 mmHg 71%
    01:00 +25°C° 0 mm 3 mps 727 mmHg 76%
    02:00 +24°C° 0 mm 2 mps 727 mmHg 81%
    03:00 +23°C° 0 mm 1 mps 727 mmHg 86%
    04:00 +24°C° 0 mm 2 mps 727 mmHg 83%
    05:00 +24°C° 0 mm 3 mps 727 mmHg 80%
    06:00 +25°C° 0 mm 3 mps 728 mmHg 77%
    07:00 +27°C° 0 mm 3 mps 728 mmHg 67%
    08:00 +29°C° 0 mm 3 mps 729 mmHg 57%
    09:00 +31°C° 0 mm 3 mps 729 mmHg 47%
    10:00 +34°C° 0 mm 4 mps 729 mmHg 40%
    11:00 +36°C° 0 mm 4 mps 728 mmHg 34%
    12:00 +38°C° 0 mm 4 mps 728 mmHg 27%
    13:00 +38°C° 0 mm 3 mps 727 mmHg 25%
    14:00 +39°C° 0 mm 3 mps 726 mmHg 23%
    15:00 +39°C° 0 mm 3 mps 725 mmHg 21%
    16:00 +37°C° 0 mm 3 mps 725 mmHg 24%
    17:00 +36°C° 0 mm 2 mps 725 mmHg 27%
    18:00 +34°C° 0 mm 2 mps 725 mmHg 30%
    19:00 +31°C° 0 mm 2 mps 726 mmHg 34%
    20:00 +30°C° 0 mm 2 mps 727 mmHg 37%
    21:00 +29°C° 0 mm 2 mps 727 mmHg 40%
    22:00 +28°C° 0 mm 2 mps 727 mmHg 49%
    23:00 +27°C° 0 mm 2 mps 727 mmHg 57%

    23 November, Saturday

    Time Temperature Precipitation Wind Pressure Humidity
    00:00 +26°C° 0 mm 3 mps 727 mmHg 66%
    01:00 +25°C° 0 mm 2 mps 727 mmHg 72%
    02:00 +24°C° 0 mm 2 mps 727 mmHg 78%
    03:00 +23°C° 0 mm 2 mps 727 mmHg 84%
    04:00 +24°C° 0 mm 2 mps 727 mmHg 82%
    05:00 +25°C° 0 mm 2 mps 728 mmHg 79%
    06:00 +25°C° 0 mm 2 mps 728 mmHg 77%
    07:00 +27°C° 0 mm 2 mps 729 mmHg 70%
    08:00 +28°C° 0 mm 2 mps 729 mmHg 64%
    09:00 +29°C° 0 mm 3 mps 729 mmHg 57%
    10:00 +33°C° 0 mm 3 mps 729 mmHg 48%
    11:00 +35°C° 0 mm 3 mps 728 mmHg 40%
    12:00 +38°C° 0 mm 3 mps 728 mmHg 31%
    13:00 +38°C° 0 mm 3 mps 727 mmHg 29%
    14:00 +39°C° 0 mm 3 mps 726 mmHg 27%
    15:00 +39°C° 0 mm 2 mps 725 mmHg 26%
    16:00 +37°C° 0 mm 2 mps 726 mmHg 28%
    17:00 +36°C° 0 mm 2 mps 726 mmHg 30%
    18:00 +35°C° 0 mm 2 mps 726 mmHg 32%
    19:00 +32°C° 0 mm 2 mps 726 mmHg 34%
    20:00 +31°C° 0 mm 2 mps 727 mmHg 36%
    21:00 +30°C° 0 mm 2 mps 727 mmHg 39%
    22:00 +29°C° 0 mm 2 mps 727 mmHg 46%
    23:00 +27°C° 0 mm 2 mps 727 mmHg 52%

    24 November, Sunday

    Time Temperature Precipitation Wind Pressure Humidity
    00:00 +26°C° 0 mm 2 mps 727 mmHg 59%
    01:00 +25°C° 0 mm 2 mps 727 mmHg 67%
    02:00 +24°C° 0 mm 2 mps 726 mmHg 74%
    03:00 +23°C° 0 mm 1 mps 726 mmHg 81%
    04:00 +23°C° 0 mm 1 mps 727 mmHg 82%
    05:00 +23°C° 0 mm 1 mps 727 mmHg 83%
    06:00 +23°C° 0 mm 1 mps 728 mmHg 85%
    07:00 +26°C° 0 mm 2 mps 728 mmHg 69%
    08:00 +29°C° 0 mm 2 mps 728 mmHg 54%
    09:00 +33°C° 0 mm 3 mps 729 mmHg 39%
    10:00 +35°C° 0 mm 3 mps 728 mmHg 34%
    11:00 +37°C° 0 mm 3 mps 728 mmHg 30%
    12:00 +39°C° 0 mm 3 mps 727 mmHg 25%
    13:00 +40°C° 0 mm 3 mps 726 mmHg 24%
    14:00 +40°C° 0 mm 3 mps 725 mmHg 23%
    15:00 +40°C° 0 mm 3 mps 725 mmHg 21%
    16:00 +39°C° 0 mm 2 mps 725 mmHg 24%
    17:00 +37°C° 0 mm 2 mps 725 mmHg 27%
    18:00 +35°C° 0 mm 2 mps 725 mmHg 30%
    19:00 +34°C° 0 mm 2 mps 726 mmHg 34%
    20:00 +33°C° 0 mm 3 mps 726 mmHg 37%
    21:00 +31°C° 0 mm 3 mps 727 mmHg 41%
    22:00 +29°C° 0 mm 3 mps 726 mmHg 50%
    23:00 +27°C° 0 mm 2 mps 726 mmHg 60%

    25 November, Monday

    Time Temperature Precipitation Wind Pressure Humidity
    00:00 +26°C° 0 mm 1 mps 726 mmHg 69%
    01:00 +25°C° 0 mm 1 mps 726 mmHg 74%
    02:00 +24°C° 0 mm 1 mps 726 mmHg 79%
    03:00 +21°C° 0 mm 0 mps 726 mmHg 84%
    04:00 +24°C° 0 mm 1 mps 726 mmHg 82%
    05:00 +24°C° 0 mm 1 mps 727 mmHg 81%
    06:00 +24°C° 0 mm 1 mps 727 mmHg 80%
    07:00 +26°C° 0 mm 2 mps 728 mmHg 73%
    08:00 +28°C° 0 mm 2 mps 728 mmHg 66%
    09:00 +30°C° 0 mm 3 mps 729 mmHg 59%
    10:00 +33°C° 0 mm 3 mps 728 mmHg 52%
    11:00 +36°C° 0 mm 3 mps 728 mmHg 44%
    12:00 +38°C° 0 mm 3 mps 727 mmHg 36%
    13:00 +38°C° 0 mm 3 mps 726 mmHg 35%
    14:00 +38°C° 0 mm 3 mps 725 mmHg 33%
    15:00 +39°C° 0 mm 3 mps 724 mmHg 32%
    16:00 +37°C° 0 mm 2 mps 724 mmHg 34%
    17:00 +36°C° 0 mm 2 mps 725 mmHg 36%
    18:00 +33°C° 0 mm 1 mps 725 mmHg 38%
    19:00 +32°C° 0 mm 2 mps 725 mmHg 41%
    20:00 +33°C° 0 mm 3 mps 726 mmHg 44%
    21:00 +31°C° 0 mm 3 mps 726 mmHg 46%
    22:00 +29°C° 0 mm 3 mps 726 mmHg 54%
    23:00 +28°C° 0 mm 3 mps 726 mmHg 62%
    Show more